TimeCST,TemperatureF,Dew PointF,Humidity,Sea Level PressureIn,VisibilityMPH,Wind Direction,Wind SpeedMPH,Gust SpeedMPH,PrecipitationIn,Events,Conditions,WindDirDegrees,DateUTC
12:00 AM,79,74,81,29.91,12,ESE,6.9,,,,Mostly Cloudy,120,2013-02-13 06:00:00
3:00 AM,79,74,81,29.86,12,ESE,4.6,,,,Partly Cloudy,110,2013-02-13 09:00:00
5:00 AM,78.8,73.4,83,29.83,6.2,ESE,4.6,-,N/A,,Mostly Cloudy,110,2013-02-13 11:00:00
6:00 AM,79,74,82,29.85,12,SE,4.6,,,,Scattered Clouds,130,2013-02-13 12:00:00
6:00 AM,78.8,75.2,89,29.83,6.2,SE,4.6,-,N/A,,Partly Cloudy,130,2013-02-13 12:00:00
7:00 AM,78.8,75.2,89,29.86,6.2,ESE,4.6,-,N/A,,Partly Cloudy,110,2013-02-13 13:00:00
8:00 AM,80.6,75.2,84,29.86,6.2,ESE,6.9,-,N/A,,Scattered Clouds,120,2013-02-13 14:00:00
9:00 AM,83,76,73,29.91,12,SE,9.2,,,,Mostly Cloudy,130,2013-02-13 15:00:00
9:00 AM,82.4,75.2,79,29.90,6.2,SE,9.2,-,N/A,,Mostly Cloudy,130,2013-02-13 15:00:00
10:00 AM,84.2,75.2,74,29.91,6.2,SE,8.1,-,N/A,,Mostly Cloudy,140,2013-02-13 16:00:00
11:00 AM,86.0,75.2,70,29.90,6.2,SE,10.4,-,N/A,,Scattered Clouds,140,2013-02-13 17:00:00
12:00 PM,85,75,66,29.88,16,SE,11.5,,,,Scattered Clouds,140,2013-02-13 18:00:00
12:00 PM,86.0,75.2,70,29.87,6.2,SE,11.5,-,N/A,,Partly Cloudy,140,2013-02-13 18:00:00
1:00 PM,86.0,73.4,66,29.85,6.2,SE,8.1,-,N/A,,Partly Cloudy,130,2013-02-13 19:00:00
2:00 PM,86.0,73.4,66,29.83,6.2,SE,6.9,-,N/A,,Partly Cloudy,130,2013-02-13 20:00:00
3:00 PM,86,74,59,29.82,19,ESE,8.1,,,,Scattered Clouds,110,2013-02-13 21:00:00
3:00 PM,86.0,73.4,66,29.81,6.2,ESE,8.1,-,N/A,,Partly Cloudy,110,2013-02-13 21:00:00
4:00 PM,86.0,73.4,66,29.81,6.2,East,8.1,-,N/A,,Partly Cloudy,100,2013-02-13 22:00:00
5:00 PM,84.2,73.4,70,29.82,6.2,East,9.2,-,N/A,,Partly Cloudy,100,2013-02-13 23:00:00
6:00 PM,81,74,74,29.83,12,East,4.6,,,,Scattered Clouds,100,2013-02-14 00:00:00
6:00 PM,80.6,73.4,79,29.82,6.2,East,4.6,-,N/A,,Partly Cloudy,100,2013-02-14 00:00:00
9:00 PM,78,73,81,29.87,12,ESE,4.6,,,,Scattered Clouds,110,2013-02-14 03:00:00